| time (UTC) | temp F | wind direction | speed MPH | gust MPH | rain 1hr in | rain 24hr in | rain mn in | humidity % | barometer mb |
| 20260506090025 | 50 | 137 | 3.0 | 10.0 | 0.00 | 0.00 | 0.00 | 75 | 1010.8 |
| 20260506084523 | 49 | 161 | 0.0 | 12.0 | 0.00 | 0.00 | 0.00 | 78 | 1010.9 |
| 20260506083020 | 48 | 176 | 4.0 | 11.0 | 0.00 | 0.00 | 0.00 | 85 | 1011.0 |
| 20260506081518 | 47 | 146 | 3.0 | 8.0 | 0.00 | 0.00 | 0.00 | 91 | 1011.1 |
| 20260506073013 | 44 | 86 | 0.0 | 4.0 | 0.00 | 0.00 | 0.00 | 96 | 1011.1 |
| 20260506071513 | 44 | 86 | 1.0 | 6.0 | 0.00 | 0.00 | 0.00 | 96 | 1010.8 |
| 20260506061506 | 42 | 98 | 0.0 | 2.0 | 0.00 | 0.00 | 0.00 | 97 | 1010.3 |
| 20260506050113 | 0 | 0.0 | 0.0 | 0.00 | 0.00 | 0.00 | 1009.7 | ||
| 20260506044559 | 0 | 0.0 | 0.0 | 0.00 | 0.00 | 0.00 | 1009.7 | ||
| 20260506043050 | 0 | 0.0 | 0.0 | 0.00 | 0.00 | 0.00 | 1009.8 | ||
| 20260506041553 | 0 | 0.0 | 0.0 | 0.00 | 0.00 | 0.00 | 1009.4 | ||
| 20260506040146 | 0 | 0.0 | 0.0 | 0.00 | 0.00 | 0.00 | 1009.5 | ||
| 20260506034542 | 0 | 0.0 | 0.0 | 0.00 | 0.00 | 0.00 | 1009.3 | ||
| 20260506033039 | 42 | 103 | 0.0 | 7.0 | 0.00 | 0.00 | 0.00 | 96 | 1009.1 |
| 20260506031554 | 42 | 103 | 1.0 | 8.0 | 0.00 | 0.00 | 0.00 | 96 | 1009.0 |
| 20260506030046 | 42 | 95 | 0.0 | 7.0 | 0.00 | 0.00 | 0.00 | 96 | 1009.0 |
| 20260506024537 | 43 | 87 | 1.0 | 9.0 | 0.00 | 0.00 | 0.00 | 96 | 1008.8 |
| 20260506023036 | 43 | 126 | 1.0 | 7.0 | 0.00 | 0.00 | 0.00 | 96 | 1009.0 |
| 20260506021531 | 43 | 138 | 0.0 | 4.0 | 0.00 | 0.00 | 0.00 | 96 | 1008.7 |
| 20260506020031 | 44 | 139 | 0.0 | 2.0 | 0.00 | 0.00 | 0.00 | 96 | 1008.6 |
| 20260506014532 | 44 | 139 | 0.0 | 3.0 | 0.00 | 0.00 | 0.00 | 96 | 1008.4 |
| 20260506013030 | 44 | 139 | 0.0 | 0.0 | 0.00 | 0.00 | 0.00 | 96 | 1008.5 |
| 20260506011530 | 44 | 139 | 0.0 | 1.0 | 0.00 | 0.00 | 0.00 | 96 | 1008.8 |
| 20260506010032 | 44 | 133 | 0.0 | 4.0 | 0.00 | 0.00 | 0.00 | 96 | 1008.2 |
| 20260506004539 | 44 | 132 | 2.0 | 7.0 | 0.00 | 0.00 | 0.00 | 96 | 1008.6 |
| 20260506003027 | 45 | 111 | 0.0 | 6.0 | 0.00 | 0.00 | 0.00 | 96 | 1008.4 |
| 20260506001524 | 45 | 111 | 0.0 | 3.0 | 0.00 | 0.00 | 0.00 | 96 | 1009.2 |
| 20260506000026 | 44 | 111 | 0.0 | 0.0 | 0.00 | 0.00 | 0.00 | 96 | 1008.6 |
| 20260505234600 | 44 | 111 | 0.0 | 0.0 | 0.00 | 0.00 | 0.00 | 96 | 1008.5 |
| 20260505233025 | 44 | 111 | 0.0 | 6.0 | 0.00 | 0.00 | 0.00 | 96 | 1009.2 |
| 20260505231524 | 44 | 111 | 0.0 | 2.0 | 0.00 | 0.00 | 0.00 | 96 | 1009.0 |
| 20260505230027 | 44 | 111 | 0.0 | 0.0 | 0.00 | 0.00 | 0.00 | 96 | 1009.2 |
| 20260505224530 | 45 | 111 | 0.0 | 8.0 | 0.00 | 0.00 | 0.00 | 96 | 1009.6 |
| 20260505223024 | 45 | 80 | 0.0 | 5.0 | 0.00 | 0.00 | 0.00 | 96 | 1009.5 |
| 20260505221522 | 45 | 115 | 1.0 | 8.0 | 0.00 | 0.00 | 0.00 | 96 | 1009.9 |
| 20260505220025 | 45 | 96 | 0.0 | 0.0 | 0.00 | 0.00 | 0.00 | 96 | 1010.3 |
| 20260505214524 | 45 | 96 | 1.0 | 6.0 | 0.00 | 0.00 | 0.00 | 96 | 1010.0 |
| 20260505213023 | 45 | 88 | 0.0 | 7.0 | 0.00 | 0.00 | 0.00 | 96 | 1009.1 |
| 20260505211520 | 46 | 97 | 2.0 | 9.0 | 0.00 | 0.00 | 0.00 | 96 | 1009.2 |
| 20260505210022 | 46 | 114 | 3.0 | 11.0 | 0.00 | 0.00 | 0.00 | 96 | 1009.7 |
| 20260505204525 | 46 | 98 | 1.0 | 8.0 | 0.00 | 0.00 | 0.00 | 96 | 1009.0 |
| 20260505203017 | 47 | 88 | 3.0 | 10.0 | 0.00 | 0.00 | 0.00 | 96 | 1009.6 |
| 20260505201514 | 47 | 109 | 0.0 | 8.0 | 0.00 | 0.00 | 0.00 | 96 | 1009.7 |
| 20260505200021 | 48 | 111 | 2.0 | 11.0 | 0.00 | 0.00 | 0.00 | 97 | 1008.9 |
| 20260505194510 | 48 | 94 | 2.0 | 10.0 | 0.00 | 0.00 | 0.00 | 97 | 1009.2 |
| 20260505193010 | 48 | 117 | 3.0 | 10.0 | 0.00 | 0.00 | 0.00 | 97 | 1008.8 |
| 20260505191505 | 49 | 128 | 1.0 | 6.0 | 0.00 | 0.00 | 0.00 | 97 | 1009.3 |
| 20260505190006 | 50 | 121 | 2.0 | 11.0 | 0.00 | 0.00 | 0.00 | 97 | 1008.9 |
| 20260505184501 | 51 | 114 | 3.0 | 11.0 | 0.00 | 0.00 | 0.00 | 97 | 1008.0 |
| 20260505183100 | 51 | 132 | 6.0 | 13.0 | 0.00 | 0.00 | 0.00 | 97 | 1007.5 |
| 20260505181557 | 51 | 132 | 5.0 | 12.0 | 0.00 | 0.00 | 0.00 | 97 | 1007.2 |
| 20260505174555 | 52 | 101 | 5.0 | 18.0 | 0.00 | 0.00 | 0.00 | 97 | 1006.9 |
| 20260505173052 | 54 | 97 | 6.0 | 18.0 | 0.00 | 0.00 | 0.00 | 97 | 1007.2 |
| 20260505171548 | 55 | 137 | 2.0 | 8.0 | 0.00 | 0.00 | 0.00 | 97 | 1006.4 |
| 20260505170052 | 55 | 144 | 1.0 | 10.0 | 0.00 | 0.00 | 0.00 | 97 | 1005.8 |
| 20260505164557 | 55 | 155 | 4.0 | 11.0 | 0.00 | 0.00 | 0.00 | 97 | 1006.1 |
| 20260505163052 | 55 | 154 | 0.0 | 6.0 | 0.00 | 0.00 | 0.00 | 97 | 1006.3 |
| 20260505161553 | 55 | 154 | 1.0 | 8.0 | 0.00 | 0.00 | 0.00 | 97 | 1006.2 |
| 20260505153150 | 55 | 217 | 1.0 | 3.0 | 0.00 | 0.00 | 0.00 | 97 | 1005.0 |
| 20260505151547 | 55 | 215 | 0.0 | 3.0 | 0.00 | 0.00 | 0.00 | 97 | 1004.8 |
| 20260505124548 | 56 | 159 | 3.0 | 15.0 | 0.00 | 0.00 | 0.00 | 94 | 1005.6 |
| 20260505123040 | 56 | 125 | 4.0 | 11.0 | 0.00 | 0.00 | 0.00 | 92 | 1005.8 |
| 20260505121540 | 59 | 146 | 7.0 | 16.0 | 0.00 | 0.00 | 0.00 | 90 | 1005.7 |
| 20260505120047 | 63 | 101 | 4.0 | 8.0 | 0.00 | 0.00 | 0.00 | 89 | 1005.0 |
| 20260505114535 | 64 | 166 | 0.0 | 5.0 | 0.00 | 0.00 | 0.00 | 88 | 1004.7 |
| 20260505113035 | 64 | 171 | 0.0 | 3.0 | 0.00 | 0.00 | 0.00 | 87 | 1004.3 |
| 20260505111533 | 64 | 168 | 2.0 | 6.0 | 0.00 | 0.00 | 0.00 | 87 | 1004.3 |
| 20260505101526 | 65 | 222 | 1.0 | 10.0 | 0.00 | 0.00 | 0.00 | 92 | 1005.6 |
| 20260505100024 | 64 | 200 | 3.0 | 10.0 | 0.00 | 0.00 | 0.00 | 95 | 1006.0 |
| 20260505094528 | 62 | 222 | 0.0 | 12.0 | 0.00 | 0.00 | 0.00 | 96 | 1006.1 |
| 20260505093021 | 62 | 234 | 1.0 | 7.0 | 0.00 | 0.00 | 0.00 | 97 | 1006.3 |
| 20260505091518 | 61 | 283 | 0.0 | 11.0 | 0.00 | 0.00 | 0.00 | 98 | 1006.6 |